Hauptseite
METAR-TAF:

METAR-TAF

Flughäfen :

Bohrplattform

Goeree Le, Niederlande

Breite: 51-55-33N, Länge: 3-40-12E, Höhe: 19 m

Beobachtung

Neuester Wetterbericht von vor 15 Minuten, um 04:25 UTC
Wind 17 kt aus Süd
Temperatur 7°C
Luftfeuchtigkeit 81%
Luftdruck 1020 hPa
Sichtweite 10 km oder mehr

METAR: EHSC 170425Z AUTO 18017KT 9999 ///////// 07/04 Q1020 W06/H3

Zeit: 05:40 (04:40 UTC)


TAF: fehlend

Wetterbeobachtungen und Prognosen von mehr als 4000 Flughäfen (METAR und TAF Bericht).

Die verfügbaren Stationen werden durch gelbe und rote Markierungen auf der Karte dargestellt.

Führen Sie die Maus auf sie, um den Namen der Station zu sehen.

Darauf klicken, um die Beobachtung von Wetterbeobachtungen und Prognosen zu sehen.

Um die Karte zu ändern : klicken Sie auf den grünen Tasten mit einem schwarzen Kreuz Zum Vergrößern, auf den grünen Button mit einem Gedankenstrich zu verkleinern, oder auf die grünen Pfeile für benachbarte Karten.


METAR-TAF: